Saginaw Browne, MI

5:19 AM EDT on August 18, 2017 (GMT -0400)
Saginaw County-Browne

Weather History for KHYX - November, 2013

Change the Weather History Date:

Friday, November 29, 2013

  Actual Average (KMBS) Record (KMBS)
Temperature  
Mean Temperature 19 °F -  
Max Temperature 26 °F 39 °F 64 °F (1998)
Min Temperature 12 °F 27 °F 12 °F (2013)
Degree Days  
Heating Degree Days 46    
Moisture  
Dew Point 19 °F    
Average Humidity 98    
Maximum Humidity 100    
Minimum Humidity 86    
Precipitation  
Precipitation 0.00 in - - ()
Sea Level Pressure  
Sea Level Pressure 30.57 in    
Wind  
Wind Speed 1 mph (SE)    
Max Wind Speed 9 mph    
Max Gust Speed -    
Visibility 5 miles    
Events Fog    
Averages and records for this station are not official NWS values.
T = Trace of Precipitation, MM = Missing Value Source: NWS Daily Summary

Daily Weather History Graph

Daily Weather History Graph

Search for Another Location

Airport or City:

Trip Planner

Search our weather history database for the weather conditions in past years. The results will help you decide how hot, cold, wet, or windy it might be!

Date:

Astronomy

Nov. 29, 2013 Rise Set
Actual Time 7:46 AM EST 5:01 PM EST
Civil Twilight 7:14 AM EST 5:33 PM EST
Nautical Twilight 6:38 AM EST 6:08 PM EST
Astronomical Twilight 6:04 AM EST 6:42 PM EST
Moon 3:45 AM EST (11/29) 2:50 PM EST (11/29)
Length of Visible Light 10h 18m
Length of Day
9h 14m
Waning Crescent, 14% of the Moon is Illuminated
Nov 29
Waning Crescent
Dec 2
New
Dec 9
First Quarter
Dec 17
Full
Dec 25
Last Quarter

Hourly Weather History & Observations

Time (EST) Temp. Windchill Dew Point Humidity Pressure Visibility Wind Dir Wind Speed Gust Speed Precip Events Conditions
12:15 AM 21.2 °F - 21.2 °F 100% 30.42 in 3.0 mi Calm Calm - N/A   Overcast
12:35 AM 17.6 °F - 17.6 °F 100% 30.42 in 2.0 mi Calm Calm - N/A   Overcast
12:55 AM 14.0 °F - 14.0 °F 100% 30.43 in 0.5 mi Calm Calm - N/A Fog Light Freezing Fog
1:15 AM 14.0 °F - 14.0 °F 100% 30.43 in 0.8 mi Calm Calm - N/A   Overcast
1:35 AM 12.2 °F - 12.2 °F 100% 30.43 in 0.5 mi Calm Calm - N/A Fog Light Freezing Fog
1:55 AM 12.2 °F - 10.4 °F 92% 30.44 in 0.2 mi Calm Calm - N/A Fog Light Freezing Fog
2:15 AM 12.2 °F - 12.2 °F 100% 30.44 in 0.2 mi Calm Calm - N/A Fog Light Freezing Fog
2:35 AM 12.2 °F - 10.4 °F 92% 30.46 in 0.2 mi Calm Calm - N/A Fog Light Freezing Fog
2:55 AM 12.2 °F - 10.4 °F 92% 30.46 in 0.2 mi Calm Calm - N/A Fog Light Freezing Fog
3:15 AM 12.2 °F - 12.2 °F 100% 30.47 in 0.2 mi Calm Calm - N/A Fog Light Freezing Fog
3:35 AM 12.2 °F - 10.4 °F 92% 30.47 in 0.2 mi Calm Calm - N/A Fog Light Freezing Fog
3:54 AM 12.2 °F - 12.2 °F 100% 30.48 in 0.2 mi Calm Calm - N/A Fog Light Freezing Fog
4:15 AM 14.0 °F - 12.2 °F 93% 30.50 in 0.2 mi Calm Calm - N/A Fog Light Freezing Fog
4:35 AM 15.8 °F - 15.8 °F 100% 30.50 in 0.2 mi Calm Calm - N/A Fog Light Freezing Fog
4:54 AM 17.6 °F - 17.6 °F 100% 30.51 in 0.2 mi Calm Calm - N/A Fog Light Freezing Fog
5:15 AM 17.6 °F - 17.6 °F 100% 30.52 in 0.2 mi Calm Calm - N/A Fog Light Freezing Fog
5:35 AM 17.6 °F - 15.8 °F 93% 30.52 in 0.2 mi Calm Calm - N/A Fog Light Freezing Fog
5:54 AM 17.6 °F - 17.6 °F 100% 30.53 in 0.2 mi Calm Calm - N/A Fog Light Freezing Fog
6:15 AM 15.8 °F - 15.8 °F 100% 30.54 in 0.5 mi Calm Calm - N/A Fog Light Freezing Fog
6:35 AM 15.8 °F - 15.8 °F 100% 30.55 in 0.2 mi Calm Calm - N/A Fog Light Freezing Fog
6:55 AM 17.6 °F - 15.8 °F 93% 30.56 in 0.2 mi Calm Calm - N/A Fog Light Freezing Fog
7:15 AM 15.8 °F - 15.8 °F 100% 30.56 in 0.2 mi Calm Calm - N/A Fog Light Freezing Fog
7:35 AM 15.8 °F - 15.8 °F 100% 30.57 in 0.5 mi Calm Calm - N/A Fog Light Freezing Fog
7:55 AM 14.0 °F - 14.0 °F 100% 30.58 in 0.2 mi Calm Calm - N/A Fog Light Freezing Fog
8:15 AM 14.0 °F - 14.0 °F 100% 30.59 in 2.0 mi Calm Calm - N/A   Overcast
8:35 AM 12.2 °F - 12.2 °F 100% 30.60 in 0.2 mi Calm Calm - N/A Fog Light Freezing Fog
8:55 AM 12.2 °F - 12.2 °F 100% 30.62 in 3.0 mi Calm Calm - N/A   Overcast
9:15 AM 15.8 °F - 14.0 °F 93% 30.62 in 4.0 mi Calm Calm - N/A   Overcast
9:35 AM 19.4 °F - 19.4 °F 100% 30.62 in 5.0 mi Calm Calm - N/A   Overcast
9:55 AM 21.2 °F - 21.2 °F 100% 30.63 in 5.0 mi Calm Calm - N/A   Overcast
10:15 AM 23.0 °F - 23.0 °F 100% 30.64 in 7.0 mi Calm Calm - N/A   Overcast
10:35 AM 23.0 °F - 23.0 °F 100% 30.64 in 7.0 mi Calm Calm - N/A   Overcast
10:55 AM 21.2 °F - 21.2 °F 100% 30.64 in 7.0 mi Calm Calm - N/A   Overcast
11:15 AM 23.0 °F - 23.0 °F 100% 30.65 in 7.0 mi Calm Calm - N/A   Overcast
11:35 AM 23.0 °F 18.4 °F 23.0 °F 100% 30.64 in 7.0 mi SW 3.5 mph - N/A   Overcast
11:55 AM 23.0 °F 18.4 °F 23.0 °F 100% 30.64 in 7.0 mi SW 3.5 mph - N/A   Overcast
12:15 PM 23.0 °F 17.0 °F 23.0 °F 100% 30.63 in 7.0 mi WSW 4.6 mph - N/A   Overcast
12:35 PM 23.0 °F 17.0 °F 23.0 °F 100% 30.63 in 7.0 mi SW 4.6 mph - N/A   Overcast
12:55 PM 23.0 °F 15.8 °F 23.0 °F 100% 30.62 in 7.0 mi SSW 5.8 mph - N/A   Overcast
1:15 PM 24.8 °F 20.5 °F 24.8 °F 100% 30.62 in 10.0 mi WSW 3.5 mph - N/A   Overcast
1:34 PM 24.8 °F 20.5 °F 24.8 °F 100% 30.62 in 10.0 mi WSW 3.5 mph - N/A   Overcast
1:55 PM 24.8 °F 19.1 °F 24.8 °F 100% 30.62 in 10.0 mi West 4.6 mph - N/A   Overcast
2:15 PM 26.6 °F 22.6 °F 26.6 °F 100% 30.61 in 10.0 mi WSW 3.5 mph - N/A   Overcast
2:34 PM 24.8 °F - 24.8 °F 100% 30.61 in 10.0 mi Calm Calm - N/A   Overcast
2:55 PM 24.8 °F - 24.8 °F 100% 30.61 in 10.0 mi Calm Calm - N/A   Mostly Cloudy
3:15 PM 26.6 °F - 24.8 °F 93% 30.61 in 10.0 mi Calm Calm - N/A   Scattered Clouds
3:34 PM 26.6 °F - 23.0 °F 86% 30.61 in 10.0 mi Calm Calm - N/A   Clear
3:55 PM 26.6 °F - 24.8 °F 93% 30.62 in 10.0 mi Calm Calm - N/A   Clear
4:15 PM 24.8 °F - 23.0 °F 93% 30.61 in 10.0 mi Calm Calm - N/A   Clear
4:34 PM 23.0 °F 18.4 °F 23.0 °F 100% 30.62 in 10.0 mi ENE 3.5 mph - N/A   Clear
4:55 PM 23.0 °F 18.4 °F 23.0 °F 100% 30.62 in 7.0 mi East 3.5 mph - N/A   Clear
5:15 PM 23.0 °F - 23.0 °F 100% 30.62 in 7.0 mi Calm Calm - N/A   Clear
5:34 PM 23.0 °F - 23.0 °F 100% 30.61 in 7.0 mi Calm Calm - N/A   Clear
5:55 PM 23.0 °F - 23.0 °F 100% 30.61 in 7.0 mi Calm Calm - N/A   Clear
6:15 PM 23.0 °F 18.4 °F 23.0 °F 100% 30.61 in 7.0 mi East 3.5 mph - N/A   Clear
6:34 PM 23.0 °F 18.4 °F 23.0 °F 100% 30.61 in 7.0 mi ENE 3.5 mph - N/A   Clear
6:55 PM 21.2 °F 14.9 °F 21.2 °F 100% 30.61 in 7.0 mi East 4.6 mph - N/A   Scattered Clouds
7:15 PM 21.2 °F 16.4 °F 21.2 °F 100% 30.60 in 7.0 mi ESE 3.5 mph - N/A   Scattered Clouds
7:34 PM 23.0 °F - 23.0 °F 100% 30.59 in 7.0 mi Calm Calm - N/A   Clear
7:55 PM 23.0 °F 17.0 °F 23.0 °F 100% 30.58 in 7.0 mi SE 4.6 mph - N/A   Clear
8:15 PM 23.0 °F 17.0 °F 21.2 °F 93% 30.58 in 7.0 mi ESE 4.6 mph - N/A   Clear
8:35 PM 21.2 °F 16.4 °F 21.2 °F 100% 30.57 in 7.0 mi SE 3.5 mph - N/A   Clear
8:55 PM 21.2 °F 16.4 °F 21.2 °F 100% 30.57 in 7.0 mi East 3.5 mph - N/A   Clear
9:15 PM 21.2 °F 14.9 °F 21.2 °F 100% 30.57 in 7.0 mi East 4.6 mph - N/A   Clear
9:35 PM 21.2 °F 14.9 °F 21.2 °F 100% 30.57 in 7.0 mi ESE 4.6 mph - N/A   Clear
9:55 PM 21.2 °F 13.6 °F 21.2 °F 100% 30.56 in 7.0 mi ESE 5.8 mph - N/A   Clear
10:15 PM 21.2 °F 12.6 °F 21.2 °F 100% 30.56 in 7.0 mi ESE 6.9 mph - N/A   Clear
10:35 PM 23.0 °F 14.7 °F 21.2 °F 93% 30.55 in 7.0 mi SE 6.9 mph - N/A   Clear
10:55 PM 24.8 °F 15.3 °F 23.0 °F 93% 30.54 in 10.0 mi SE 9.2 mph - N/A   Scattered Clouds
11:15 PM 24.8 °F 16.1 °F 23.0 °F 93% 30.54 in 10.0 mi SSE 8.1 mph - N/A   Mostly Cloudy
11:35 PM 26.6 °F 18.2 °F 23.0 °F 86% 30.54 in 10.0 mi SSE 8.1 mph - N/A   Mostly Cloudy
11:55 PM 26.6 °F 19.1 °F 23.0 °F 86% 30.53 in 10.0 mi SSE 6.9 mph - N/A   Mostly Cloudy